Weather History for KTOL - October, 2011

Change the Weather History Date:

Thursday, October 20, 2011

  Actual Average Record
Temperature  
Mean Temperature 47 °F 51 °F  
Max Temperature 49 °F 61 °F 82 °F (1920)
Min Temperature 44 °F 41 °F 18 °F (1972)
Degree Days  
Heating Degree Days 18 14  
Month to date heating degree days 166 227  
Since 1 July heating degree days 304 351  
Cooling Degree Days 0 0  
Month to date cooling degree days 2 8  
Year to date cooling degree days 997 792  
Moisture  
Dew Point 44 °F    
Average Humidity 92    
Maximum Humidity 100    
Minimum Humidity 83    
Precipitation  
Precipitation 0.17 in 0.08 in 0.89 in (1965)
Month to date precipitation 2.40 1.70  
Year to date precipitation 37.51 27.80  
Snow  
Snow 0.00 in 0.00 in - ()
Month to date snowfall 0.0 0.1  
Since 1 July snowfall 0.0 0.1  
Since 1 September snowfall 0.0 0.1  
Snow Depth 0.00 in    
Sea Level Pressure  
Sea Level Pressure 29.27 in    
Wind  
Wind Speed 12 mph (WNW)    
Max Wind Speed 25 mph    
Max Gust Speed 33 mph    
Visibility 6 miles    
Events Rain    
T = Trace of Precipitation, MM = Missing Value Source: NWS Daily Summary

Daily Weather History Graph

Daily Weather History Graph

Search for Another Location

Airport or City:

Trip Planner

Search our weather history database for the weather conditions in past years. The results will help you decide how hot, cold, wet, or windy it might be!

Date:

Astronomy

Oct. 20, 2011 Rise Set
Actual Time 7:52 AM EDT 6:46 PM EDT
Civil Twilight 7:24 AM EDT 7:14 PM EDT
Nautical Twilight 6:52 AM EDT 7:47 PM EDT
Astronomical Twilight 6:20 AM EDT 8:19 PM EDT
Moon 12:31 AM EDT (10/20) 3:00 PM EDT (10/20)
Length of Visible Light 11h 50m
Length of Day
10h 54m
Last Quarter, 44% of the Moon is Illuminated
Oct 20
Last Quarter
Oct 26
New
Nov 2
First Quarter
Nov 10
Full
Nov 18
Last Quarter

Hourly Weather History & Observations

Time (EDT) Temp. Windchill Dew Point Humidity Pressure Visibility Wind Dir Wind Speed Gust Speed Precip Events Conditions
12:25 AM 48.2 °F - 46.4 °F 93% 29.10 in 3.0 mi North 16.1 mph 21.9 mph 0.06 in Rain Light Rain
12:52 AM 48.0 °F - 46.0 °F 93% 29.09 in 2.5 mi North 17.3 mph 24.2 mph 0.08 in   Overcast
1:52 AM 48.0 °F - 46.9 °F 96% 29.06 in 2.0 mi North 13.8 mph - 0.06 in   Overcast
2:21 AM 48.2 °F - 46.4 °F 93% 29.04 in 4.0 mi North 13.8 mph - 0.02 in Rain Light Rain
2:52 AM 48.9 °F - 46.9 °F 93% 29.05 in 8.0 mi NW 8.1 mph - 0.02 in   Overcast
3:52 AM 48.9 °F - 48.0 °F 97% 29.05 in 10.0 mi West 5.8 mph - 0.00 in   Overcast
4:20 AM 48.2 °F - 48.2 °F 100% 29.04 in 7.0 mi SW 5.8 mph - 0.00 in Rain Light Rain
4:52 AM 48.0 °F - 46.9 °F 96% 29.05 in 5.0 mi South 9.2 mph - 0.01 in   Overcast
5:52 AM 46.9 °F - 46.0 °F 97% 29.06 in 7.0 mi South 4.6 mph - N/A   Overcast
6:52 AM 46.9 °F - 46.0 °F 97% 29.07 in 4.0 mi South 4.6 mph - N/A   Overcast
7:52 AM 46.9 °F - 46.0 °F 97% 29.09 in 4.0 mi Calm Calm - 0.00 in Rain Light Rain
8:20 AM 46.4 °F - 44.6 °F 93% 29.09 in 2.5 mi Calm Calm - 0.00 in   Overcast
8:52 AM 46.0 °F 44.8 °F 45.0 °F 96% 29.12 in 5.0 mi East 3.5 mph - 0.01 in   Overcast
9:13 AM 46.4 °F - 44.6 °F 93% 29.13 in 2.0 mi Calm Calm - 0.00 in Rain Light Rain
9:31 AM 46.4 °F 44.3 °F 44.6 °F 93% 29.14 in 3.0 mi North 4.6 mph - 0.00 in   Overcast
9:45 AM 46.4 °F 44.3 °F 46.4 °F 100% 29.14 in 3.0 mi North 4.6 mph - 0.00 in   Overcast
9:50 AM 46.4 °F 45.2 °F 46.4 °F 100% 29.14 in 2.5 mi North 3.5 mph - 0.00 in   Overcast
9:52 AM 48.0 °F - 46.0 °F 93% 29.15 in 2.5 mi NNW 3.5 mph - 0.00 in   Overcast
10:04 AM 48.2 °F - 46.4 °F 93% 29.15 in 2.5 mi NNW 4.6 mph - N/A   Overcast
10:22 AM 48.2 °F - 46.4 °F 93% 29.16 in 5.0 mi NW 9.2 mph - 0.00 in Rain Light Rain
10:36 AM 48.2 °F - 46.4 °F 93% 29.18 in 1.8 mi NW 9.2 mph - 0.01 in Rain Light Rain
10:52 AM 48.9 °F - 46.9 °F 93% 29.19 in 3.0 mi NW 15.0 mph - 0.01 in Rain Light Rain
11:06 AM 48.2 °F - 46.4 °F 93% 29.19 in 2.5 mi NW 13.8 mph 20.7 mph 0.01 in Rain Light Rain
11:13 AM 48.2 °F - 46.4 °F 93% 29.20 in 3.0 mi NW 16.1 mph 25.3 mph 0.01 in Rain Light Rain
11:21 AM 48.2 °F - 46.4 °F 93% 29.20 in 1.8 mi NW 21.9 mph 28.8 mph 0.01 in Rain Light Rain
11:42 AM 46.4 °F 39.0 °F 44.6 °F 93% 29.22 in 3.0 mi NW 19.6 mph 28.8 mph 0.01 in Rain Light Rain
11:52 AM 46.4 °F 39.2 °F 44.6 °F 93% 29.22 in 10.0 mi WNW 18.4 mph 25.3 mph N/A   Overcast
12:20 PM 46.4 °F 39.0 °F 42.8 °F 87% 29.25 in 10.0 mi NW 19.6 mph 28.8 mph N/A   Overcast
12:52 PM 46.0 °F 39.3 °F 42.1 °F 86% 29.28 in 8.0 mi WNW 16.1 mph 24.2 mph 0.00 in Rain Light Rain
1:52 PM 45.0 °F 37.6 °F 42.1 °F 90% 29.31 in 10.0 mi WNW 17.3 mph 26.5 mph 0.01 in Rain Light Rain
2:52 PM 45.0 °F 38.9 °F 42.1 °F 90% 29.36 in 9.0 mi West 12.7 mph 23.0 mph 0.01 in Rain Light Rain
3:52 PM 44.6 °F 37.4 °F 41.0 °F 87% 29.39 in 10.0 mi West 16.1 mph - N/A Rain Light Rain
4:52 PM 46.0 °F 39.6 °F 42.1 °F 86% 29.44 in 10.0 mi West 15.0 mph - 0.00 in Rain Light Rain
5:01 PM 44.6 °F 38.8 °F 42.8 °F 93% 29.44 in 10.0 mi West 11.5 mph 23.0 mph 0.00 in   Overcast
5:21 PM 44.6 °F 38.4 °F 42.8 °F 93% 29.46 in 9.0 mi West 12.7 mph - 0.00 in Rain Light Rain
5:52 PM 45.0 °F 38.9 °F 42.1 °F 90% 29.49 in 10.0 mi West 12.7 mph - 0.01 in Rain Light Rain
6:33 PM 44.6 °F 38.1 °F 41.0 °F 87% 29.52 in 10.0 mi West 13.8 mph - 0.00 in   Overcast
6:52 PM 45.0 °F 37.9 °F 42.1 °F 90% 29.54 in 9.0 mi West 16.1 mph - 0.00 in Rain Light Rain
7:30 PM 44.6 °F 37.8 °F 39.2 °F 81% 29.57 in 7.0 mi WNW 15.0 mph 20.7 mph 0.00 in Rain Light Rain
7:52 PM 44.1 °F 37.4 °F 41.0 °F 89% 29.60 in 10.0 mi West 13.8 mph 19.6 mph 0.01 in   Overcast
8:52 PM 44.1 °F 37.1 °F 39.9 °F 85% 29.64 in 10.0 mi West 15.0 mph 23.0 mph N/A   Overcast
9:52 PM 44.1 °F 36.8 °F 39.9 °F 85% 29.67 in 10.0 mi West 16.1 mph - N/A   Overcast
10:52 PM 44.1 °F 36.8 °F 39.9 °F 85% 29.71 in 10.0 mi West 16.1 mph 21.9 mph N/A   Overcast
11:52 PM 44.1 °F 38.6 °F 39.0 °F 82% 29.74 in 10.0 mi West 10.4 mph 20.7 mph N/A   Overcast